Tracking 18032 objects as of 24-March-2017
HD Live streaming from Space Station
objects crossing your sky now

SL-3 R/B

Track SL-3 R/B now!
10-day predictions


NORAD ID: 8027
Int'l Code: 1975-064B
Perigee: 836.5 km
Apogee: 915.0 km
Inclination: 81.3 °
Period: 102.3 minutes
Semi major axis: 7246 km
RCS: 6.004 m2 (large)
Launch date: July 11, 1975
Source: Commonwealth of Independent States (former USSR) (CIS)
Launch site: PLESETSK MISSILE AND SPACE COMPLEX (PKMTR)

Note: This is a ROCKET BODY
Your satellite tracking list
Your tracking list is empty





NASA's NSSDC Master Catalog

Two Line Element Set (TLE):
1  8027U 75064B   17081.87826691 -.00000012 +00000-0 -15031-4 0  9992
2  8027 081.2974 138.8152 0054149 148.1547 212.2916 14.07307309140070
Source of the keplerian elements: AFSPC